Location: Tamazert
(32.6352°N, 5.2072°W)
Time: 15:34:54
(UTC+00:00)

Vanguard 3 - Pass Details

Date: 06 October 2022
Orbit: 509 x 3255 km, 33.3° (Epoch: 08 December)

Event Time Altitude Azimuth Distance (km) Brightness Sun altitude
Rises 10:00:59 0° 275° (W) 2,778 9.6 41.5°
Reaches altitude 10° 10:02:52 10° 276° (W) 2,009 8.9 41.8°
Maximum altitude 10:07:22 84° 3° (N) 831 7.9 42.4°
Drops below altitude 10° 10:14:49 10° 94° (E) 3,262 10.9 43.5°
Sets 10:18:39 0° 95° (E) 4,693 11.5 44.0°
